,,,PA_Meas_PMT16A,,PR_Meas_QMR101_102,,RH_Meas_QMH101,,SR_Meas_QMS101,,TA_Meas_QMH101,,GenWind,,GenWind,
date,time,status,PA,status,PR,status,RH,status,SR,status,TA,status,DirAvg,status,SpdAvg,
2011-11-25, 00:00:04,VALID,999.137,VALID,0,VALID,93.7223,VALID,0,VALID,23.4653,VALID,147,VALID,0.488281,
2011-11-25, 00:01:04,VALID,999.164,VALID,0,VALID,93.6917,VALID,0,VALID,23.4866,VALID,147,VALID,0.510156,
2011-11-25, 00:02:04,VALID,999.18,VALID,0,VALID,93.6612,VALID,0,VALID,23.4671,VALID,147,VALID,0.466016,
2011-11-25, 00:03:04,VALID,999.159,VALID,0,VALID,93.6307,VALID,0,VALID,23.4458,VALID,147,VALID,0.344531,
2011-11-25, 00:04:04,VALID,999.153,VALID,0,VALID,93.6002,VALID,0,VALID,23.4475,VALID,147,VALID,0.346094,
2011-11-25, 00:05:04,VALID,999.171,VALID,0,VALID,93.5697,VALID,0,VALID,23.428,VALID,147,VALID,0.46875,
2011-11-25, 00:06:04,VALID,999.177,VALID,0,VALID,93.562,VALID,0,VALID,23.4475,VALID,147,VALID,0.681641,
2011-11-25, 00:07:04,VALID,999.159,VALID,0,VALID,93.5468,VALID,0,VALID,23.428,VALID,147,VALID,0.762109,
2011-11-25, 00:08:04,VALID,999.134,VALID,0,VALID,93.501,VALID,0,VALID,23.4085,VALID,147,VALID,0.716016,
2011-11-25, 00:09:04,VALID,999.107,VALID,0,VALID,93.501,VALID,0,VALID,23.4085,VALID,147,VALID,0.773047,
2011-11-25, 00:10:04,VALID,999.084,VALID,0,VALID,93.5239,VALID,0,VALID,23.4067,VALID,147,VALID,0.858203,
2011-11-25, 00:11:04,VALID,999.075,VALID,0,VALID,93.501,VALID,0.104696,VALID,23.4085,VALID,147,VALID,0.8625,
2011-11-25, 00:12:04,VALID,999.056,VALID,0,VALID,93.5086,VALID,0,VALID,23.4085,VALID,147,VALID,0.983594,
2011-11-25, 00:13:04,VALID,999.036,VALID,0,VALID,93.5163,VALID,0,VALID,23.3855,VALID,147,VALID,1.00703,
2011-11-25, 00:14:04,VALID,998.99,VALID,0,VALID,93.5239,VALID,0,VALID,23.4085,VALID,147,VALID,1.00117,
2011-11-25, 00:15:04,VALID,998.983,VALID,0,VALID,93.501,VALID,0,VALID,23.3872,VALID,147,VALID,0.855859,
2011-11-25, 00:16:04,VALID,998.954,VALID,0,VALID,93.4018,VALID,0,VALID,23.3677,VALID,147,VALID,0.637891,
2011-11-25, 00:17:04,VALID,998.964,VALID,0,VALID,93.3484,VALID,0,VALID,23.35,VALID,147,VALID,0.733594,
2011-11-25, 00:18:04,VALID,998.923,VALID,0,VALID,93.2568,VALID,0,VALID,23.3092,VALID,147,VALID,0.448047,
2011-11-25, 00:19:04,VALID,998.909,VALID,0,VALID,93.1882,VALID,0,VALID,23.311,VALID,147,VALID,0.340625,
2011-11-25, 00:20:04,VALID,998.888,VALID,0,VALID,93.1729,VALID,0,VALID,23.2719,VALID,147,VALID,0,
2011-11-25, 00:21:04,VALID,998.842,VALID,0,VALID,93.1119,VALID,0.104696,VALID,23.2312,VALID,147,VALID,0,
2011-11-25, 00:22:04,VALID,998.834,VALID,0,VALID,93.1119,VALID,0,VALID,23.2117,VALID,147,VALID,0,
2011-11-25, 00:23:04,VALID,998.821,VALID,0,VALID,93.1577,VALID,0.104696,VALID,23.2312,VALID,147,VALID,0.341016,
2011-11-25, 00:24:04,VALID,998.837,VALID,0,VALID,93.1653,VALID,0,VALID,23.2117,VALID,7,VALID,0.823828,
2011-11-25, 00:25:04,VALID,998.839,VALID,0,VALID,93.2568,VALID,0,VALID,23.1921,VALID,1,VALID,0.819531,
2011-11-25, 00:26:04,VALID,998.805,VALID,0,VALID,93.356,VALID,0.104696,VALID,23.2117,VALID,15,VALID,0.664063,
2011-11-25, 00:27:04,VALID,998.832,VALID,0,VALID,93.4247,VALID,0,VALID,23.2117,VALID,15,VALID,0.392969,
2011-11-25, 00:28:04,VALID,998.799,VALID,0,VALID,93.4781,VALID,0,VALID,23.1921,VALID,15,VALID,0.457812,
2011-11-25, 00:29:04,VALID,998.818,VALID,0,VALID,93.501,VALID,0,VALID,23.1921,VALID,15,VALID,0.339453,
2011-11-25, 00:30:04,VALID,998.812,VALID,0,VALID,93.5391,VALID,0.104696,VALID,23.1921,VALID,15,VALID,0.727344,
2011-11-25, 00:31:04,VALID,998.803,VALID,0,VALID,93.6231,VALID,0.104696,VALID,23.1921,VALID,37,VALID,1.13477,
2011-11-25, 00:32:04,VALID,998.816,VALID,0,VALID,93.6307,VALID,0,VALID,23.1531,VALID,36,VALID,1.20898,
2011-11-25, 00:33:04,VALID,998.769,VALID,0,VALID,93.6612,VALID,0,VALID,23.1141,VALID,36,VALID,0.876953,
2011-11-25, 00:34:04,VALID,998.774,VALID,0,VALID,93.6917,VALID,0,VALID,23.0556,VALID,36,VALID,0.834375,
2011-11-25, 00:35:04,VALID,998.753,VALID,0,VALID,93.7528,VALID,0,VALID,23.0166,VALID,36,VALID,0.676953,
2011-11-25, 00:36:04,VALID,998.734,VALID,0,VALID,93.8138,VALID,0.104696,VALID,22.9971,VALID,36,VALID,0.577734,
2011-11-25, 00:37:04,VALID,998.722,VALID,0,VALID,93.8672,VALID,0.104696,VALID,23.0166,VALID,36,VALID,0.466406,
2011-11-25, 00:38:04,VALID,998.697,VALID,0,VALID,93.9359,VALID,0,VALID,23.0166,VALID,36,VALID,0.476953,
2011-11-25, 00:39:04,VALID,998.685,VALID,0,VALID,93.9969,VALID,0,VALID,23.0769,VALID,36,VALID,0.413281,
2011-11-25, 00:40:04,VALID,998.664,VALID,0,VALID,93.9969,VALID,0,VALID,23.0964,VALID,36,VALID,0.273047,
2011-11-25, 00:41:04,VALID,998.638,VALID,0,VALID,94.058,VALID,0,VALID,23.0964,VALID,36,VALID,0,
2011-11-25, 00:42:04,VALID,998.624,VALID,0,VALID,94.0732,VALID,0,VALID,23.1176,VALID,36,VALID,0,
2011-11-25, 00:43:04,VALID,998.644,VALID,0,VALID,94.0885,VALID,0,VALID,23.0964,VALID,36,VALID,0,
2011-11-25, 00:44:04,VALID,998.587,VALID,0,VALID,94.1419,VALID,0,VALID,23.0769,VALID,36,VALID,0,
2011-11-25, 00:45:04,VALID,998.581,VALID,0,VALID,94.1343,VALID,0,VALID,23.0981,VALID,36,VALID,0,
2011-11-25, 00:46:04,VALID,998.538,VALID,0,VALID,94.1571,VALID,0,VALID,23.0981,VALID,36,VALID,0,
2011-11-25, 00:47:04,VALID,998.513,VALID,0,VALID,94.18,VALID,0,VALID,23.0769,VALID,36,VALID,0,
2011-11-25, 00:48:04,VALID,998.5,VALID,0,VALID,94.1953,VALID,0,VALID,23.0769,VALID,36,VALID,0.302734,
2011-11-25, 00:49:04,VALID,998.466,VALID,0,VALID,94.1953,VALID,0,VALID,23.0769,VALID,36,VALID,0.458203,
2011-11-25, 00:50:04,VALID,998.451,VALID,0,VALID,94.2258,VALID,0,VALID,23.0964,VALID,36,VALID,0.326172,
2011-11-25, 00:51:04,VALID,998.432,VALID,0,VALID,94.2411,VALID,0,VALID,23.1176,VALID,51,VALID,0.546484,
2011-11-25, 00:52:04,VALID,998.465,VALID,0,VALID,94.2487,VALID,0,VALID,23.0964,VALID,69,VALID,0.579687,
2011-11-25, 00:53:04,VALID,998.437,VALID,0,VALID,94.2563,VALID,0,VALID,23.0964,VALID,69,VALID,0.429688,
2011-11-25, 00:54:04,VALID,998.468,VALID,0,VALID,94.2716,VALID,0,VALID,23.0964,VALID,69,VALID,0.221484,
2011-11-25, 00:55:04,VALID,998.447,VALID,0,VALID,94.2563,VALID,0,VALID,23.0964,VALID,69,VALID,0,
2011-11-25, 00:56:04,VALID,998.461,VALID,0,VALID,94.2945,VALID,0,VALID,23.0556,VALID,69,VALID,0,
2011-11-25, 00:57:04,VALID,998.453,VALID,0,VALID,94.2792,VALID,0.104696,VALID,23.0183,VALID,69,VALID,0,
2011-11-25, 00:58:04,VALID,998.466,VALID,0,VALID,94.3021,VALID,0,VALID,22.9988,VALID,69,VALID,0,
2011-11-25, 00:59:04,VALID,998.444,VALID,0,VALID,94.2792,VALID,0,VALID,22.9971,VALID,26,VALID,0.854297,
2011-11-25, 01:00:04,VALID,998.448,VALID,0,VALID,94.2716,VALID,0,VALID,23.0166,VALID,25,VALID,0.435547,
2011-11-25, 01:01:04,VALID,998.413,VALID,0,VALID,94.2792,VALID,0,VALID,23.0166,VALID,25,VALID,0.587891,
2011-11-25, 01:02:04,VALID,998.407,VALID,0,VALID,94.2792,VALID,0,VALID,22.9971,VALID,33,VALID,0.352734,
2011-11-25, 01:03:04,VALID,998.395,VALID,0,VALID,94.2792,VALID,0,VALID,22.9776,VALID,33,VALID,0.572266,
2011-11-25, 01:04:04,VALID,998.374,VALID,0,VALID,94.2945,VALID,0,VALID,22.9385,VALID,33,VALID,0.790625,
2011-11-25, 01:05:04,VALID,998.364,VALID,0,VALID,94.2716,VALID,0,VALID,22.919,VALID,33,VALID,0.637109,
2011-11-25, 01:06:04,VALID,998.371,VALID,0,VALID,94.2792,VALID,0,VALID,22.9385,VALID,33,VALID,0.616797,
2011-11-25, 01:07:04,VALID,998.329,VALID,0,VALID,94.2868,VALID,0,VALID,22.9208,VALID,33,VALID,0.586719,
2011-11-25, 01:08:04,VALID,998.355,VALID,0,VALID,94.2792,VALID,0,VALID,22.9208,VALID,33,VALID,0.446094,
2011-11-25, 01:09:04,VALID,998.383,VALID,0,VALID,94.2945,VALID,0,VALID,22.8818,VALID,33,VALID,0.487109,
2011-11-25, 01:10:04,VALID,998.351,VALID,0,VALID,94.2716,VALID,0.104696,VALID,22.8818,VALID,33,VALID,0.674609,
2011-11-25, 01:11:04,VALID,998.326,VALID,0,VALID,94.2945,VALID,0,VALID,22.8818,VALID,20,VALID,0.806641,
2011-11-25, 01:12:04,VALID,998.338,VALID,0,VALID,94.3021,VALID,0,VALID,22.88,VALID,20,VALID,0.628906,
2011-11-25, 01:13:04,VALID,998.311,VALID,0,VALID,94.3174,VALID,0,VALID,22.9013,VALID,20,VALID,0.340234,
2011-11-25, 01:14:04,VALID,998.259,VALID,0,VALID,94.325,VALID,0,VALID,22.9013,VALID,20,VALID,0.197266,
2011-11-25, 01:15:04,VALID,998.267,VALID,0,VALID,94.325,VALID,0,VALID,22.841,VALID,20,VALID,0.05,
2011-11-25, 01:16:04,VALID,998.218,VALID,0,VALID,94.3326,VALID,0,VALID,22.8427,VALID,20,VALID,0.0105469,
2011-11-25, 01:17:04,VALID,998.207,VALID,0,VALID,94.325,VALID,0,VALID,22.802,VALID,20,VALID,0.0207031,
2011-11-25, 01:18:04,VALID,998.171,VALID,0,VALID,94.3479,VALID,0,VALID,22.724,VALID,20,VALID,0.291016,
2011-11-25, 01:19:04,VALID,998.151,VALID,0,VALID,94.3326,VALID,0,VALID,22.7842,VALID,20,VALID,0.421484,
2011-11-25, 01:20:04,VALID,998.133,VALID,0,VALID,94.3326,VALID,0,VALID,22.8232,VALID,20,VALID,0.403125,
2011-11-25, 01:21:04,VALID,998.147,VALID,0,VALID,94.3403,VALID,0,VALID,22.8445,VALID,20,VALID,0.450781,
2011-11-25, 01:22:04,VALID,998.129,VALID,0,VALID,94.3555,VALID,0,VALID,22.8427,VALID,20,VALID,0.18125,
2011-11-25, 01:23:04,VALID,998.142,VALID,0,VALID,94.3631,VALID,0,VALID,22.8037,VALID,20,VALID,0,
2011-11-25, 01:24:04,VALID,998.123,VALID,0,VALID,94.3708,VALID,0,VALID,22.763,VALID,20,VALID,0,
2011-11-25, 01:25:04,VALID,998.103,VALID,0,VALID,94.3708,VALID,0,VALID,22.7257,VALID,20,VALID,0,
2011-11-25, 01:26:04,VALID,998.096,VALID,0,VALID,94.386,VALID,0,VALID,22.6867,VALID,20,VALID,0,
2011-11-25, 01:27:04,VALID,998.068,VALID,0,VALID,94.4165,VALID,0,VALID,22.6477,VALID,20,VALID,0,
2011-11-25, 01:28:04,VALID,998.044,VALID,0,VALID,94.386,VALID,0,VALID,22.6672,VALID,20,VALID,0,
2011-11-25, 01:29:04,VALID,998.011,VALID,0,VALID,94.4013,VALID,0,VALID,22.6477,VALID,20,VALID,0,
2011-11-25, 01:30:04,VALID,997.989,VALID,0,VALID,94.4013,VALID,0,VALID,22.6069,VALID,20,VALID,0,
2011-11-25, 01:31:04,VALID,997.973,VALID,0,VALID,94.4165,VALID,0,VALID,22.6282,VALID,20,VALID,0.248047,
2011-11-25, 01:32:04,VALID,997.989,VALID,0,VALID,94.4165,VALID,0,VALID,22.6672,VALID,20,VALID,0.373828,
2011-11-25, 01:33:04,VALID,997.969,VALID,0,VALID,94.4089,VALID,0,VALID,22.7257,VALID,24,VALID,0.488672,
2011-11-25, 01:34:04,VALID,997.966,VALID,0,VALID,94.386,VALID,0,VALID,22.8037,VALID,140,VALID,0.900391,
2011-11-25, 01:35:04,VALID,997.945,VALID,0,VALID,94.4165,VALID,0,VALID,22.7825,VALID,141,VALID,1.16094,
2011-11-25, 01:36:04,VALID,997.928,VALID,0,VALID,94.4318,VALID,0,VALID,22.7825,VALID,141,VALID,0.771484,
2011-11-25, 01:37:04,VALID,997.905,VALID,0,VALID,94.4165,VALID,0,VALID,22.802,VALID,141,VALID,0.795703,
2011-11-25, 01:38:04,VALID,997.863,VALID,0,VALID,94.4471,VALID,0,VALID,22.802,VALID,141,VALID,0.641406,
2011-11-25, 01:39:04,VALID,997.861,VALID,0,VALID,94.4394,VALID,0,VALID,22.8215,VALID,141,VALID,0.691406,
2011-11-25, 01:40:04,VALID,997.829,VALID,0,VALID,94.4547,VALID,0,VALID,22.841,VALID,141,VALID,0.525,
2011-11-25, 01:41:04,VALID,997.82,VALID,0,VALID,94.4547,VALID,0,VALID,22.8818,VALID,141,VALID,0.534766,
2011-11-25, 01:42:04,VALID,997.816,VALID,0,VALID,94.4471,VALID,0,VALID,22.88,VALID,141,VALID,0.440625,
2011-11-25, 01:43:04,VALID,997.817,VALID,0,VALID,94.47,VALID,0,VALID,22.88,VALID,141,VALID,0.308594,
2011-11-25, 01:44:04,VALID,997.809,VALID,0,VALID,94.4394,VALID,0,VALID,22.8605,VALID,141,VALID,0.520703,
2011-11-25, 01:45:04,VALID,997.786,VALID,0,VALID,94.4623,VALID,0,VALID,22.88,VALID,141,VALID,0.253516,
2011-11-25, 01:46:04,VALID,997.786,VALID,0,VALID,94.4623,VALID,0,VALID,22.8818,VALID,141,VALID,0.178906,
2011-11-25, 01:47:04,VALID,997.769,VALID,0,VALID,94.4547,VALID,0,VALID,22.8605,VALID,141,VALID,0,
2011-11-25, 01:48:04,VALID,997.722,VALID,0,VALID,94.4623,VALID,0,VALID,22.8623,VALID,141,VALID,0,
2011-11-25, 01:49:04,VALID,997.727,VALID,0,VALID,94.4623,VALID,0,VALID,22.8818,VALID,141,VALID,0,
2011-11-25, 01:50:04,VALID,997.705,VALID,0,VALID,94.4547,VALID,0,VALID,22.8623,VALID,141,VALID,0,
2011-11-25, 01:51:04,VALID,997.692,VALID,0,VALID,94.4547,VALID,0,VALID,22.8427,VALID,141,VALID,0,
2011-11-25, 01:52:04,VALID,997.638,VALID,0,VALID,94.4623,VALID,0,VALID,22.841,VALID,141,VALID,0,
2011-11-25, 01:53:04,VALID,997.648,VALID,0,VALID,94.4318,VALID,0,VALID,22.841,VALID,141,VALID,0,
2011-11-25, 01:54:04,VALID,997.601,VALID,0,VALID,94.4547,VALID,0,VALID,22.8445,VALID,141,VALID,0,
2011-11-25, 01:55:04,VALID,997.583,VALID,0,VALID,94.4471,VALID,0,VALID,22.8055,VALID,141,VALID,0,
2011-11-25, 01:56:04,VALID,997.567,VALID,0,VALID,94.4623,VALID,0,VALID,22.8055,VALID,141,VALID,0,
2011-11-25, 01:57:04,VALID,997.564,VALID,0,VALID,94.4547,VALID,0,VALID,22.7842,VALID,141,VALID,0,
2011-11-25, 01:58:04,VALID,997.534,VALID,0,VALID,94.4394,VALID,0,VALID,22.825,VALID,141,VALID,0,
2011-11-25, 01:59:04,VALID,997.561,VALID,0,VALID,94.4242,VALID,0,VALID,22.8232,VALID,126,VALID,0,
2011-11-25, 02:00:04,VALID,997.558,VALID,0,VALID,94.4165,VALID,0,VALID,22.8623,VALID,98,VALID,0.73125,
2011-11-25, 02:01:04,VALID,997.532,VALID,0,VALID,94.4165,VALID,0,VALID,22.903,VALID,98,VALID,0.442578,
2011-11-25, 02:02:04,VALID,997.555,VALID,0,VALID,94.4013,VALID,0,VALID,22.903,VALID,98,VALID,0.460156,
2011-11-25, 02:03:04,VALID,997.539,VALID,0,VALID,94.4089,VALID,0,VALID,22.903,VALID,98,VALID,0.49375,
2011-11-25, 02:04:04,VALID,997.555,VALID,0,VALID,94.4089,VALID,0,VALID,22.8818,VALID,98,VALID,0.482031,
2011-11-25, 02:05:04,VALID,997.592,VALID,0,VALID,94.3937,VALID,0,VALID,22.8623,VALID,98,VALID,0.454688,
2011-11-25, 02:06:04,VALID,997.58,VALID,0,VALID,94.3631,VALID,0,VALID,22.8037,VALID,98,VALID,0.453125,
2011-11-25, 02:07:04,VALID,997.586,VALID,0,VALID,94.3631,VALID,0,VALID,22.7469,VALID,98,VALID,0.453906,
2011-11-25, 02:08:04,VALID,997.626,VALID,0,VALID,94.325,VALID,0,VALID,22.6689,VALID,98,VALID,0.573047,
2011-11-25, 02:09:04,VALID,997.588,VALID,0,VALID,94.3021,VALID,0,VALID,22.6282,VALID,98,VALID,0.439453,
2011-11-25, 02:10:04,VALID,997.625,VALID,0,VALID,94.2792,VALID,0,VALID,22.5696,VALID,98,VALID,0.261328,
2011-11-25, 02:11:04,VALID,997.61,VALID,0,VALID,94.2716,VALID,0,VALID,22.4916,VALID,98,VALID,0.404297,
2011-11-25, 02:12:04,VALID,997.606,VALID,0,VALID,94.2563,VALID,0,VALID,22.4526,VALID,98,VALID,0.298828,
2011-11-25, 02:13:04,VALID,997.605,VALID,0,VALID,94.2487,VALID,0,VALID,22.4526,VALID,98,VALID,0.280078,
2011-11-25, 02:14:04,VALID,997.592,VALID,0,VALID,94.2411,VALID,0,VALID,22.4331,VALID,98,VALID,0.253125,
2011-11-25, 02:15:04,VALID,997.586,VALID,0,VALID,94.2487,VALID,0,VALID,22.4916,VALID,98,VALID,0,
2011-11-25, 02:16:04,VALID,997.537,VALID,0,VALID,94.2716,VALID,0,VALID,22.5501,VALID,98,VALID,0,
2011-11-25, 02:17:04,VALID,997.516,VALID,0,VALID,94.3021,VALID,0,VALID,22.6282,VALID,98,VALID,0,
2011-11-25, 02:18:04,VALID,997.485,VALID,0,VALID,94.3097,VALID,0,VALID,22.6282,VALID,98,VALID,0,
2011-11-25, 02:19:04,VALID,997.439,VALID,0,VALID,94.325,VALID,0,VALID,22.6282,VALID,98,VALID,0,
2011-11-25, 02:20:04,VALID,997.439,VALID,0,VALID,94.3326,VALID,0,VALID,22.6087,VALID,98,VALID,0,
2011-11-25, 02:21:04,VALID,997.418,VALID,0,VALID,94.3784,VALID,0,VALID,22.5892,VALID,98,VALID,0,
2011-11-25, 02:22:04,VALID,997.45,VALID,0,VALID,94.3784,VALID,0,VALID,22.5892,VALID,98,VALID,0,
2011-11-25, 02:23:04,VALID,997.464,VALID,0,VALID,94.3631,VALID,0,VALID,22.5696,VALID,98,VALID,0,
2011-11-25, 02:24:04,VALID,997.484,VALID,0,VALID,94.386,VALID,0,VALID,22.5501,VALID,98,VALID,0,
2011-11-25, 02:25:04,VALID,997.484,VALID,0,VALID,94.3784,VALID,0,VALID,22.5501,VALID,98,VALID,0,
2011-11-25, 02:26:04,VALID,997.494,VALID,0,VALID,94.4013,VALID,0,VALID,22.5696,VALID,98,VALID,0,
2011-11-25, 02:27:04,VALID,997.512,VALID,0,VALID,94.4013,VALID,0,VALID,22.6104,VALID,98,VALID,0,
2011-11-25, 02:28:04,VALID,997.517,VALID,0,VALID,94.3937,VALID,0,VALID,22.6087,VALID,98,VALID,0,
2011-11-25, 02:29:04,VALID,997.497,VALID,0,VALID,94.4089,VALID,0,VALID,22.5892,VALID,98,VALID,0,
2011-11-25, 02:30:04,VALID,997.475,VALID,0,VALID,94.4242,VALID,0,VALID,22.5909,VALID,98,VALID,0,
2011-11-25, 02:31:04,VALID,997.474,VALID,0,VALID,94.4089,VALID,0,VALID,22.5696,VALID,98,VALID,0,
2011-11-25, 02:32:04,VALID,997.439,VALID,0,VALID,94.4394,VALID,0,VALID,22.5501,VALID,98,VALID,0,
2011-11-25, 02:33:04,VALID,997.443,VALID,0,VALID,94.4394,VALID,0,VALID,22.5714,VALID,98,VALID,0,
2011-11-25, 02:34:04,VALID,997.427,VALID,0,VALID,94.4394,VALID,0,VALID,22.5696,VALID,98,VALID,0,
2011-11-25, 02:35:04,VALID,997.403,VALID,0,VALID,94.4471,VALID,0,VALID,22.5696,VALID,98,VALID,0,
2011-11-25, 02:36:04,VALID,997.4,VALID,0,VALID,94.4547,VALID,0,VALID,22.5696,VALID,98,VALID,0,
2011-11-25, 02:37:04,VALID,997.393,VALID,0,VALID,94.47,VALID,0,VALID,22.5501,VALID,98,VALID,0,
2011-11-25, 02:38:04,VALID,997.398,VALID,0,VALID,94.4623,VALID,0,VALID,22.5501,VALID,98,VALID,0,
2011-11-25, 02:39:04,VALID,997.394,VALID,0,VALID,94.4852,VALID,0,VALID,22.5289,VALID,98,VALID,0,
2011-11-25, 02:40:04,VALID,997.398,VALID,0,VALID,94.4852,VALID,0,VALID,22.5484,VALID,98,VALID,0,
2011-11-25, 02:41:04,VALID,997.397,VALID,0,VALID,94.4928,VALID,0,VALID,22.5696,VALID,98,VALID,0,
2011-11-25, 02:42:04,VALID,997.388,VALID,0,VALID,94.4852,VALID,0,VALID,22.5696,VALID,98,VALID,0,
2011-11-25, 02:43:04,VALID,997.4,VALID,0,VALID,94.5005,VALID,0,VALID,22.5696,VALID,98,VALID,0,
2011-11-25, 02:44:04,VALID,997.436,VALID,0,VALID,94.5081,VALID,0.104696,VALID,22.5519,VALID,98,VALID,0,
2011-11-25, 02:45:04,VALID,997.438,VALID,0,VALID,94.5005,VALID,0,VALID,22.5323,VALID,98,VALID,0,
2011-11-25, 02:46:04,VALID,997.47,VALID,0,VALID,94.5157,VALID,0,VALID,22.4916,VALID,98,VALID,0,
2011-11-25, 02:47:04,VALID,997.441,VALID,0,VALID,94.531,VALID,0,VALID,22.4916,VALID,98,VALID,0,
2011-11-25, 02:48:04,VALID,997.444,VALID,0,VALID,94.5081,VALID,0,VALID,22.4916,VALID,98,VALID,0,
2011-11-25, 02:49:04,VALID,997.464,VALID,0,VALID,94.531,VALID,0,VALID,22.4916,VALID,98,VALID,0,
2011-11-25, 02:50:04,VALID,997.456,VALID,0,VALID,94.5081,VALID,0,VALID,22.5306,VALID,98,VALID,0,
2011-11-25, 02:51:04,VALID,997.439,VALID,0,VALID,94.5157,VALID,0,VALID,22.5892,VALID,98,VALID,0,
2011-11-25, 02:52:04,VALID,997.454,VALID,0,VALID,94.5081,VALID,0,VALID,22.6087,VALID,98,VALID,0,
2011-11-25, 02:53:04,VALID,997.437,VALID,0,VALID,94.5234,VALID,0,VALID,22.6282,VALID,98,VALID,0,
2011-11-25, 02:54:04,VALID,997.453,VALID,0,VALID,94.5157,VALID,0,VALID,22.6087,VALID,98,VALID,0,
2011-11-25, 02:55:04,VALID,997.444,VALID,0,VALID,94.5081,VALID,0,VALID,22.5909,VALID,98,VALID,0,
2011-11-25, 02:56:04,VALID,997.458,VALID,0,VALID,94.5386,VALID,0,VALID,22.5714,VALID,98,VALID,0,
2011-11-25, 02:57:04,VALID,997.434,VALID,0,VALID,94.5234,VALID,0,VALID,22.5714,VALID,98,VALID,0,
2011-11-25, 02:58:04,VALID,997.452,VALID,0,VALID,94.531,VALID,0,VALID,22.5501,VALID,98,VALID,0,
2011-11-25, 02:59:04,VALID,997.482,VALID,0,VALID,94.5462,VALID,0,VALID,22.5501,VALID,98,VALID,0,
2011-11-25, 03:00:04,VALID,997.46,VALID,0,VALID,94.531,VALID,0,VALID,22.5501,VALID,98,VALID,0,
2011-11-25, 03:01:04,VALID,997.493,VALID,0,VALID,94.5539,VALID,0,VALID,22.5111,VALID,98,VALID,0,
2011-11-25, 03:02:04,VALID,997.471,VALID,0,VALID,94.5691,VALID,0,VALID,22.4526,VALID,98,VALID,0,
2011-11-25, 03:03:04,VALID,997.499,VALID,0,VALID,94.5691,VALID,0,VALID,22.4331,VALID,98,VALID,0,
2011-11-25, 03:04:04,VALID,997.484,VALID,0,VALID,94.5615,VALID,0,VALID,22.4721,VALID,98,VALID,0,
2011-11-25, 03:05:04,VALID,997.486,VALID,0,VALID,94.5462,VALID,0,VALID,22.4933,VALID,98,VALID,0,
2011-11-25, 03:06:04,VALID,997.458,VALID,0,VALID,94.5691,VALID,0,VALID,22.4916,VALID,98,VALID,0,
2011-11-25, 03:07:04,VALID,997.489,VALID,0,VALID,94.5691,VALID,0,VALID,22.5128,VALID,98,VALID,0,
2011-11-25, 03:08:04,VALID,997.497,VALID,0,VALID,94.5691,VALID,0,VALID,22.4916,VALID,98,VALID,0,
2011-11-25, 03:09:04,VALID,997.468,VALID,0,VALID,94.6149,VALID,0,VALID,22.4526,VALID,98,VALID,0,
2011-11-25, 03:10:04,VALID,997.459,VALID,0,VALID,94.6073,VALID,0,VALID,22.3941,VALID,98,VALID,0,
2011-11-25, 03:11:04,VALID,997.433,VALID,0,VALID,94.6226,VALID,0,VALID,22.3746,VALID,98,VALID,0,
2011-11-25, 03:12:04,VALID,997.443,VALID,0,VALID,94.6073,VALID,0,VALID,22.3356,VALID,98,VALID,0,
2011-11-25, 03:13:04,VALID,997.421,VALID,0,VALID,94.6073,VALID,0,VALID,22.3551,VALID,98,VALID,0,
2011-11-25, 03:14:04,VALID,997.422,VALID,0,VALID,94.5997,VALID,0,VALID,22.3746,VALID,98,VALID,0,
2011-11-25, 03:15:04,VALID,997.417,VALID,0,VALID,94.5997,VALID,0,VALID,22.3941,VALID,98,VALID,0,
2011-11-25, 03:16:04,VALID,997.408,VALID,0,VALID,94.592,VALID,0,VALID,22.3941,VALID,98,VALID,0,
2011-11-25, 03:17:04,VALID,997.446,VALID,0,VALID,94.592,VALID,0,VALID,22.4348,VALID,98,VALID,0,
2011-11-25, 03:18:04,VALID,997.451,VALID,0,VALID,94.5691,VALID,0,VALID,22.4331,VALID,98,VALID,0,
2011-11-25, 03:19:04,VALID,997.464,VALID,0,VALID,94.592,VALID,0,VALID,22.4331,VALID,98,VALID,0,
2011-11-25, 03:20:04,VALID,997.472,VALID,0,VALID,94.592,VALID,0,VALID,22.4331,VALID,98,VALID,0,
2011-11-25, 03:21:04,VALID,997.473,VALID,0,VALID,94.6073,VALID,0,VALID,22.4348,VALID,98,VALID,0,
2011-11-25, 03:22:04,VALID,997.46,VALID,0,VALID,94.5844,VALID,0,VALID,22.4348,VALID,98,VALID,0,
2011-11-25, 03:23:04,VALID,997.472,VALID,0,VALID,94.592,VALID,0,VALID,22.4348,VALID,98,VALID,0,
2011-11-25, 03:24:04,VALID,997.476,VALID,0,VALID,94.6226,VALID,0,VALID,22.3941,VALID,98,VALID,0,
2011-11-25, 03:25:04,VALID,997.484,VALID,0,VALID,94.5844,VALID,0,VALID,22.4348,VALID,98,VALID,0,
2011-11-25, 03:26:04,VALID,997.499,VALID,0,VALID,94.6226,VALID,0,VALID,22.3958,VALID,98,VALID,0,
2011-11-25, 03:27:04,VALID,997.479,VALID,0,VALID,94.6149,VALID,0,VALID,22.3941,VALID,98,VALID,0.269922,
2011-11-25, 03:28:04,VALID,997.479,VALID,0,VALID,94.5997,VALID,0,VALID,22.3746,VALID,98,VALID,0,
2011-11-25, 03:29:04,VALID,997.418,VALID,0,VALID,94.6378,VALID,0,VALID,22.3551,VALID,98,VALID,0,
2011-11-25, 03:30:04,VALID,997.401,VALID,0,VALID,94.6149,VALID,0,VALID,22.3161,VALID,98,VALID,0,
2011-11-25, 03:31:04,VALID,997.344,VALID,0,VALID,94.6607,VALID,0,VALID,22.3178,VALID,98,VALID,0,
2011-11-25, 03:32:04,VALID,997.347,VALID,0,VALID,94.6607,VALID,0,VALID,22.2983,VALID,98,VALID,0,
2011-11-25, 03:33:04,VALID,997.309,VALID,0,VALID,94.6454,VALID,0,VALID,22.2983,VALID,98,VALID,0,
2011-11-25, 03:34:04,VALID,997.337,VALID,0,VALID,94.6454,VALID,0,VALID,22.2576,VALID,98,VALID,0,
2011-11-25, 03:35:04,VALID,997.316,VALID,0,VALID,94.6378,VALID,0,VALID,22.2397,VALID,98,VALID,0,
2011-11-25, 03:36:04,VALID,997.31,VALID,0,VALID,94.6378,VALID,0,VALID,22.2381,VALID,98,VALID,0,
2011-11-25, 03:37:04,VALID,997.331,VALID,0,VALID,94.6302,VALID,0,VALID,22.2576,VALID,98,VALID,0,
2011-11-25, 03:38:04,VALID,997.32,VALID,0,VALID,94.6226,VALID,0,VALID,22.2983,VALID,98,VALID,0,
2011-11-25, 03:39:05,VALID,997.287,VALID,0,VALID,94.6378,VALID,0,VALID,22.2966,VALID,98,VALID,0,
2011-11-25, 03:40:05,VALID,997.268,VALID,0,VALID,94.6226,VALID,0,VALID,22.2966,VALID,98,VALID,0,
2011-11-25, 03:41:05,VALID,997.25,VALID,0,VALID,94.6226,VALID,0,VALID,22.3161,VALID,98,VALID,0,
2011-11-25, 03:42:05,VALID,997.21,VALID,0,VALID,94.6378,VALID,0,VALID,22.2966,VALID,98,VALID,0,
2011-11-25, 03:43:05,VALID,997.215,VALID,0,VALID,94.6302,VALID,0,VALID,22.2966,VALID,98,VALID,0,
2011-11-25, 03:44:05,VALID,997.222,VALID,0,VALID,94.6302,VALID,0,VALID,22.3161,VALID,98,VALID,0,
2011-11-25, 03:45:05,VALID,997.222,VALID,0,VALID,94.6226,VALID,0,VALID,22.3161,VALID,98,VALID,0,
2011-11-25, 03:46:05,VALID,997.253,VALID,0,VALID,94.6073,VALID,0,VALID,22.3763,VALID,98,VALID,0,
2011-11-25, 03:47:05,VALID,997.236,VALID,0,VALID,94.6149,VALID,0,VALID,22.3941,VALID,98,VALID,0,
2011-11-25, 03:48:05,VALID,997.256,VALID,0,VALID,94.6302,VALID,0,VALID,22.3746,VALID,98,VALID,0.332031,
2011-11-25, 03:49:05,VALID,997.229,VALID,0,VALID,94.6302,VALID,0,VALID,22.3746,VALID,98,VALID,0.400391,
2011-11-25, 03:50:05,VALID,997.242,VALID,0,VALID,94.6454,VALID,0,VALID,22.3958,VALID,98,VALID,0.423047,
2011-11-25, 03:51:05,VALID,997.259,VALID,0,VALID,94.6302,VALID,0,VALID,22.3958,VALID,98,VALID,0.210938,
2011-11-25, 03:52:05,VALID,997.257,VALID,0,VALID,94.6073,VALID,0,VALID,22.3763,VALID,98,VALID,0.114844,
2011-11-25, 03:53:05,VALID,997.243,VALID,0,VALID,94.6302,VALID,0,VALID,22.4153,VALID,98,VALID,0.315234,